EW1179 Weather Reports


Display with metric or nautical units.
time (UTC)temp
F
wind
direction
speed
MPH
gust
MPH
rain 1hr
in
rain 24hr
in
rain mn
in
humidity
%
barometer
mb
20260507180100 74 94 0.0 2.0 0.00 0.00 0.00 57 1015.0
20260507174555 73 177 0.0 0.0 0.00 0.00 0.00 59 1015.1
20260507173054 71 236 0.0 0.0 0.00 0.00 0.00 61 1015.2
20260507171545 70 163 0.0 1.0 0.00 0.00 0.00 63 1015.4
20260507170040 68 337 0.0 3.0 0.00 0.00 0.00 65 1015.4
20260507164537 67 232 0.0 0.0 0.00 0.00 0.00 67 1015.6
20260507163032 66 113 0.0 1.0 0.00 0.00 0.00 68 1015.6
20260507161527 65 350 0.0 0.0 0.00 0.00 0.00 70 1015.7
20260507160024 63 5 0.0 0.0 0.00 0.00 0.00 74 1015.7
20260507154519 62 96 0.0 0.0 0.00 0.00 0.00 79 1015.8
20260507153014 60 202 0.0 0.0 0.00 0.00 0.00 86 1015.9
20260507151510 57 202 0.0 0.0 0.00 0.00 0.00 89 1015.9
20260507150010 56 202 0.0 0.0 0.00 0.00 0.00 91 1016.0
20260507144503 54 22 0.0 0.0 0.00 0.00 0.00 93 1016.0
20260507143100 52 209 0.0 0.0 0.00 0.00 0.00 92 1016.1
20260507141555 50 238 0.0 0.0 0.00 0.00 0.00 92 1016.1
20260507140101 49 238 0.0 0.0 0.00 0.00 0.00 91 1016.1
20260507134544 48 238 0.0 0.0 0.00 0.00 0.00 91 1015.8
20260507133040 48 238 0.0 0.0 0.00 0.00 0.00 90 1015.8
20260507131544 48 238 0.0 0.0 0.00 0.00 0.00 90 1015.8
20260507130038 48 238 0.0 0.0 0.00 0.00 0.00 90 1015.7
20260507124536 49 238 0.0 0.0 0.00 0.00 0.00 90 1015.7
20260507123035 49 238 0.0 0.0 0.00 0.00 0.00 89 1015.8
20260507121534 49 238 0.0 0.0 0.00 0.00 0.00 89 1015.8
20260507120034 49 238 0.0 0.0 0.00 0.00 0.00 89 1015.9
20260507114532 49 238 0.0 0.0 0.00 0.00 0.00 89 1015.9
20260507113031 49 238 0.0 0.0 0.00 0.00 0.00 89 1016.0
20260507111530 49 238 0.0 0.0 0.00 0.00 0.00 89 1016.0
20260507110028 50 238 0.0 0.0 0.00 0.00 0.00 88 1016.1
20260507104528 50 238 0.0 0.0 0.00 0.00 0.00 88 1016.1
20260507103026 50 238 0.0 0.0 0.00 0.00 0.00 88 1016.3
20260507101536 50 238 0.0 0.0 0.00 0.00 0.00 88 1016.3
20260507100030 50 238 0.0 0.0 0.00 0.00 0.00 87 1016.3
20260507094522 50 238 0.0 0.0 0.00 0.00 0.00 87 1016.2
20260507093026 51 238 0.0 0.0 0.00 0.00 0.00 86 1016.4
20260507091541 51 238 0.0 0.0 0.00 0.00 0.00 86 1016.5
20260507090016 51 238 0.0 0.0 0.00 0.00 0.00 86 1016.5
20260507084515 51 238 0.0 0.0 0.00 0.00 0.00 85 1016.7
20260507083017 52 238 0.0 0.0 0.00 0.00 0.00 85 1016.8
20260507081512 52 238 0.0 0.0 0.00 0.00 0.00 85 1016.8
20260507080010 53 238 0.0 0.0 0.00 0.00 0.00 84 1016.7
20260507074511 53 238 0.0 0.0 0.00 0.00 0.00 84 1016.7
20260507073007 53 238 0.0 0.0 0.00 0.00 0.00 83 1016.8
20260507071507 53 238 0.0 0.0 0.00 0.00 0.00 82 1016.6
20260507070004 54 238 0.0 0.0 0.00 0.00 0.00 81 1016.7
20260507064502 54 238 0.0 0.0 0.00 0.00 0.00 80 1016.6
20260507063004 55 238 0.0 0.0 0.00 0.00 0.00 79 1016.6
20260507061502 55 238 0.0 0.0 0.00 0.00 0.00 79 1016.4
20260507060105 56 238 0.0 0.0 0.00 0.00 0.00 78 1016.4
20260507054619 56 238 0.0 0.0 0.00 0.00 0.00 77 1016.3
20260507053100 57 238 0.0 0.0 0.00 0.00 0.00 76 1016.3
20260507051559 58 238 0.0 0.0 0.00 0.00 0.00 74 1016.4
20260507050103 59 238 0.0 0.0 0.00 0.00 0.00 73 1016.4
20260507044604 59 238 0.0 0.0 0.00 0.00 0.00 72 1016.1
20260507043057 60 238 0.0 0.0 0.00 0.00 0.00 71 1015.9
20260507041557 61 289 0.0 0.0 0.00 0.00 0.00 69 1015.8
20260507040057 62 250 0.0 0.0 0.00 0.00 0.00 68 1015.5
20260507034602 62 199 0.0 0.0 0.00 0.00 0.00 67 1015.4
20260507033056 63 316 0.0 0.0 0.00 0.00 0.00 65 1015.3
20260507031555 64 201 0.0 0.0 0.00 0.00 0.00 64 1015.3
20260507030106 64 44 0.0 0.0 0.00 0.00 0.00 63 1015.0
20260507024600 65 49 0.0 0.0 0.00 0.00 0.00 63 1014.7
20260507023054 65 78 0.0 0.0 0.00 0.00 0.00 62 1014.6
20260507021614 66 55 0.0 0.0 0.00 0.00 0.00 61 1014.5
20260507020104 66 217 0.0 2.0 0.00 0.00 0.00 60 1014.4
20260507014611 67 254 0.0 3.0 0.00 0.00 0.00 59 1014.3
20260507013055 67 201 0.0 7.0 0.00 0.00 0.00 59 1014.3
20260507011552 68 217 0.0 8.0 0.00 0.00 0.00 57 1014.2
20260507004550 70 238 0.0 7.0 0.00 0.00 0.00 55 1014.2
20260507003049 70 234 0.0 6.0 0.00 0.00 0.00 55 1014.0
20260507001552 71 289 0.0 6.0 0.00 0.00 0.00 55 1014.0
20260507000049 72 235 0.0 6.0 0.00 0.00 0.00 55 1013.9
20260506234548 73 235 0.0 8.0 0.00 0.00 0.00 53 1013.9
20260506233052 73 198 0.0 12.0 0.00 0.00 0.00 52 1014.0
20260506231546 74 213 0.0 3.0 0.00 0.00 0.00 52 1014.0
20260506230045 75 244 0.0 7.0 0.00 0.00 0.00 52 1014.2
20260506224543 75 187 0.0 2.0 0.00 0.00 0.00 52 1014.4
20260506223040 75 211 0.0 6.0 0.00 0.00 0.00 53 1014.6
20260506221539 75 185 1.0 7.0 0.00 0.00 0.00 51 1014.9
20260506220039 75 235 1.0 9.0 0.00 0.00 0.00 52 1015.0
20260506214537 76 267 1.0 12.0 0.00 0.00 0.00 51 1015.1
20260506213035 76 211 1.0 6.0 0.00 0.00 0.00 49 1015.2
20260506211533 76 297 0.0 5.0 0.00 0.00 0.00 50 1015.4
20260506210033 77 274 1.0 7.0 0.00 0.00 0.00 49 1015.5
20260506204531 76 201 0.0 4.0 0.00 0.00 0.00 49 1015.6
20260506203030 77 230 1.0 9.0 0.00 0.00 0.00 48 1015.7
20260506201540 77 207 0.0 1.0 0.00 0.00 0.00 45 1015.8
20260506200027 76 160 0.0 2.0 0.00 0.00 0.00 45 1016.0
20260506194521 75 243 0.0 0.0 0.00 0.00 0.00 48 1016.2
20260506193017 74 100 0.0 2.0 0.00 0.00 0.00 49 1016.4
20260506191513 73 128 0.0 0.0 0.00 0.00 0.00 50 1016.6
20260506190008 72 283 0.0 3.0 0.00 0.00 0.00 53 1016.7
20260506184504 71 174 0.0 1.0 0.00 0.00 0.00 57 1017.0
20260506183001 70 245 0.0 2.0 0.00 0.00 0.00 58 1017.1
20260506181557 69 171 0.0 0.0 0.00 0.00 0.00 60 1017.3